COSMOS 1275 DEB, 42136

Orbit data source: Space-Track

COSMOS 1275 DEB, 42136 is space debris in LEO originally from a launch on Thu, 04 Jun 1981 UTC launched from the Plesetsk Missile And Space Complex (PKMTR). Debris objects in space refer to the collection of defunct objects orbiting the Earth. Examples of debris include non-operational satellites, rocket bodies, and fragments generated from explosions, collisions, or faulty payload assembly.

Loading next visibility...
Identifier
42136, 1981-053QY
Orbit
LEO
Country
Flag of CISCIS
Related business
Manufacturer
Unknown
Mission
Spacecraft
Bus & Motor
Unknown
Mass
Unknown
Launch date (UTC)
1981-06-04 (45 years ago)
Launch vehicle
Unknown
Launch site
Plesetsk Missile And Space Complex (PKMTR)
Object type
Payload
Rocket body
Debris
Shape & HBR
Unknown shape, 0.1 m
Radar Cross Section
Small (<0.1 m²)

Expand to show TLE details & history
Last TLE update: 1 day ago

TLE from 1 day ago
0 COSMOS 1275 DEB
1 42136U 81053QY  25349.13855143  .00002126  00000-0  14677-2 0  9994
2 42136  83.0213 129.4779 0063072  71.1435 289.6560 13.97783951611808
Epoch: 2025-12-15T03:19Z
TLE epoch observation values (Epoch: 2025-12-15T03:19:30.843Z)
Latitude
0.00003°
Longitude
-4.44203°
Altitude
889.223 km
Speed
7.415 km/s
True Right ascension
08h 37m 54s
True Declination
0° 00' 00"
Sunlit
Object was in full shadow at epoch
Visualization orbit readout
Latitude
Unknown
Longitude
Unknown
Altitude
Unknown
Speed
Unknown
Apparent Right ascension
Unknown
Apparent Declination
Unknown
Sunlit
N/A
Visualization observer readout
Local Sidereal Time
11:16:37
Azimuth
Unknown
Elevation
Unknown
Doppler factor
Unknown
Orbital elements
Apogee altitude
944.489 km
Perigee altitude
852.697 km
Semi-major axis
7,276.73 km
Eccentricity
0.00631
Inclination
83.0213°
RAAN
129.4779°
Arg. of periapsis
71.1435°
True anomaly
288.97357°
Mean anomaly
289.656°
Eccentric anomaly
289.31496°
Mean motion
3.49654 °/min
Orbital period
102.96 mins
BSTAR
0.0014677
Loading maneuver chart data...
Computing Atmospheric mass density...
Loading historical data...
Loading historical data...
Loading historical data...
Loading historical data...
Loading historical data...
Loading historical data...
Loading historical data...

Documentation

Showing up to 5 results
|